Regional Weather Roundup
Issued by NWS

Home | Current Version | Previous Version | Graphics & Text | Print | Product List | Glossary On
Versions: 1 2 3 4 5 6 7 8 9 10 11 12 13 14 15 16 17 18 19 20 21 22 23 24 25 26 27 28 29 30 31 32 33 34 35 36 37 38 39 40 41 42 43 44 45 46 47 48 49 50
000
ASUS45 KBOU 181607
RWRCO

WEATHER ROUNDUP FOR COLORADO
NATIONAL WEATHER SERVICE DENVER/BOULDER CO
1000 AM MDT SAT APR 18 2015

NOTE: "FAIR" INDICATES FEW OR NO CLOUDS BELOW 12000 FEET WITH NO
SIGNIFICANT WEATHER AND/OR OBSTRUCTIONS TO VISIBILITY.

COZ001>005-013-030-031-181700-
...NORTHWEST COLORADO...

CITY           SKY/WX    TMP DP  RH WIND       PRES   REMARKS
CRAIG          LGT SNOW  33  32  96 SW9       29.99F VSB 3/4 WCI  25
HAYDEN         CLOUDY    30  28  93 W6        29.98S VSB 1/4 WCI  24
MEEKER         LGT SNOW  34  32  92 MISG      29.99F VSB 3/4
MOUNT WERNER   NOT AVBL
STEAMBOAT SPGS CLOUDY    31  30  96 S3        29.98S VSB 1/2
WALDEN         CLOUDY    30  27  86 N7        29.96S VSB 1   WCI  23
$$

COZ006>008-011-181700-
...WEST CENTRAL VALLEYS...

CITY           SKY/WX    TMP DP  RH WIND       PRES   REMARKS
GRAND JUNCTION LGT RAIN  38  36  92 SE3       30.03F
MONTROSE       CLOUDY    35  33  92 S6        30.06F WCI  30
EAGLE          LGT SNOW  34  30  86 CALM      30.02F VSB 1
RIFLE          HVY SNOW  33  31  92 NE5       30.02S VSB<1/4 WCI  29
DELTA          CLOUDY    38  36  91 CALM      30.06S
NUCLA          CLOUDY    37  32  81 CALM      30.09S
$$

COZ017>023-064>068-181700-
...SOUTHWEST COLORADO...

CITY           SKY/WX    TMP DP  RH WIND       PRES   REMARKS
DURANGO        SUNNY     36  31  82 W8        30.02S
CORTEZ         PTSUNNY   35  34  96 SW6       30.06S WCI  30
PAGOSA SPRINGS SUNNY     36  14  41 CALM      30.00F
TELLURIDE      CLOUDY    28  21  76 CALM      30.05R
WOLF CREEK PAS PTSUNNY   21   9  58 N3        30.03R
$$

COZ009-010-012-014-032>034-037-058>063-181700-
...CENTRAL COLORADO...

CITY           SKY/WX    TMP DP  RH WIND       PRES   REMARKS
ASPEN          LGT SNOW  27  25  92 S3        29.98F VSB 1
BUENA VISTA    CLOUDY    28  21  72 CALM      29.97F
COPPER MTN     CLOUDY    23  16  74 W3        29.96S
BERTHOUD PASS  SNOW      16   9  73 MISG      29.96F VSB 1/4
COTTONWOOD PAS CLOUDY    30  19  64 CALM      29.96S
GUNNISON       CLOUDY    27  21  80 CALM      30.06S
KREMMLING      LGT SNOW  32  27  80 CALM      29.98F
LEADVILLE      CLOUDY    24  16  71 N6        29.94F WCI  17
SALIDA         CLOUDY    33  22  66 W3        30.05F
SUNLIGHT       LGT SNOW N/A N/A N/A CALM      30.02S VSB 3/4
WILKERSON PASS CLOUDY    21  18  86 NE5       29.97S WCI  15
$$

COZ069>075-181700-
...SAN LUIS VALLEY/SANGRE DE CRISTO MOUNTAINS...

CITY           SKY/WX    TMP DP  RH WIND       PRES   REMARKS
ALAMOSA        SUNNY     37  19  48 MISG      29.98F
LA VETA PASS   SUNNY     28  18  64 S12G22    29.96R WCI  18
SAGUACHE       MOSUNNY   34  21  60 NW13      29.99S WCI  25
$$

COZ035-036-038>040-181700-
...NORTHERN COLORADO FRONT RANGE...

CITY           SKY/WX    TMP DP  RH WIND       PRES   REMARKS
DENVER INTL AP CLOUDY    42  36  79 VRB3      29.94F
DMNS CITY PARK   N/A     44  35  72 N5        29.94S
AURORA         NOT AVBL
FRONT RANGE AP LGT RAIN  41  39  93 N6        29.95S
ERIE MUNI ARPT LGT RAIN  42  37  82 CALM      29.95F
BOULDER MUN AP CLOUDY    41  36  81 CALM      29.95S
CENTENNIAL     PTSUNNY   40  34  79 W6        29.94S
BROOMFIELD     NOT AVBL
FORT COLLINS   CLOUDY    46  36  66 CALM      29.96S
LONGMONT       CLOUDY    46  37  71 S6        29.96S
$$

COZ041-046-047-076>085-087-088-181700-
...PIKES PEAK/PALMER DIVIDE AND SOUTHERN FOOTHILLS...

CITY           SKY/WX    TMP DP  RH WIND       PRES   REMARKS
COLO. SPRINGS  PTSUNNY   44  30  57 NE8       29.93F
A. F. ACADEMY  MOSUNNY   43  29  57 N10       29.91F
ELLICOTT       MOSUNNY  N/A N/A N/A NE12      29.92F
FALCON         MOSUNNY   39  30  70 N8        29.94S
FORT CARSON    MOSUNNY   42  32  66 VRB5      29.92F
LIMON          CLOUDY    40  37  89 N8        29.93S
MONUMENT HILL  CLOUDY    36  30  80 NW6       29.94R
TRINIDAD       MOSUNNY   44  23  43 NW8       29.93F
$$

COZ042>045-048>051-090-091-181700-
...NORTHEAST COLORADO...

CITY           SKY/WX    TMP DP  RH WIND       PRES   REMARKS
GREELEY ARPT   CLOUDY    45  34  65 W3        29.96R
AKRON          CLOUDY    43  40  89 N8        29.93S
BURLINGTON     CLOUDY    47  42  83 E9        29.91R
WRAY           CLOUDY    52  46  78 E3        29.92S
STERLING       PTSUNNY   46  43  87 N10       29.91F
HOLYOKE        PTSUNNY   55  46  71 CALM      29.92S
FORT MORGAN    CLOUDY    45  39  80 N9        29.94S
$$

COZ086-089-092>099-181700-
...SOUTHEAST COLORADO...

CITY           SKY/WX    TMP DP  RH WIND       PRES   REMARKS
PUEBLO         MOSUNNY   47  35  63 SW5       29.93S
LA JUNTA       MOSUNNY   51  37  58 W12       29.92S
LAMAR          PTSUNNY   52  40  63 NW7       29.89R
SPRINGFIELD      N/A     50  35  56 NW13      29.90S
$$


USA.gov is the U.S. government's official web portal to all federal, state and local government web resources and services.